Regional Weather Roundup
Issued by NWS

Home | Current Version | Previous Version | Text Only | Print | Product List | Glossary Off
Versions: 1 2 3 4 5 6 7 8 9 10 11 12 13 14 15 16 17 18 19 20 21 22 23 24 25 26 27 28 29 30 31 32 33 34 35 36 37 38 39 40 41 42 43 44 45 46 47 48 49 50

000
ASUS43 KIND 300109
RWRIN

WEATHER ROUNDUP FOR INDIANA
NATIONAL WEATHER SERVICE INDIANAPOLIS IN
900 PM EDT SAT AUG 29 2015

NOTE: "FAIR" INDICATES FEW OR NO CLOUDS BELOW 12,000 FEET WITH NO
SIGNIFICANT WEATHER AND/OR OBSTRUCTIONS TO VISIBILITY.

* - STATION DOES NOT REPORT WEATHER SUCH AS PRECIPITATION OR FOG.

+ - STATION NOT QUALITY CONTROLLED BY THE NATIONAL WEATHER SERVICE.
    USE DATA WITH CAUTION...ESPECIALLY DEWPOINT AND RELATIVE
    HUMIDITY OBSERVATIONS.

INZ001>003-010>013-019-020-300200-
NORTHWEST INDIANA

CITY           SKY/WX    TMP DP  RH WIND       PRES   REMARKS
GARY /AIRPORT/ CLOUDY    72  66  83 CALM      30.01S FOG
KNOX *+        CLOUDY    70  70 100 SE7       30.00S
LA PORTE +     CLOUDY   N/A N/A N/A CALM      30.02S HAZE
MICHIGAN CITY+ CLOUDY    70  70 100 CALM      30.02R
MONTICELLO +   LGT RAIN  72  72 100 SW3       30.02R
RENSSELAER +   TSTM      70  70 100 E6        30.01R
VALPARAISO     CLOUDY    70  68  93 E3        30.02R FOG

$$

LMZ046-743>745-300200-
SOUTHERN LAKE MICHIGAN

STATION/POSITION TIME  TEMP    WIND        PRES    WAVE
                       AIR SEA DIR/SP/G            HT
                 (UTC) (F)     (DEG/KT/KT) (MB)    (FT)
BURNS HARBOR     0000   72     180/  4/  8 1016.3S
MICHIGAN CITY    0000   71     130/  3/  4   N/A
5NW MICH CITY    0100   71 70  140/  4/  4   N/A     0

$$

INZ004-005-014>016-021>024-300200-
NORTH CENTRAL INDIANA

CITY           SKY/WX    TMP DP  RH WIND       PRES   REMARKS
GOSHEN         CLOUDY    69  67  93 E5        30.04R FOG
LOGANSPORT +   RAIN      68  64  88 N3        30.05R
PERU/GRISSOM   DRIZZLE   72  64  76 SE6       30.03R
ROCHESTER +    TSTM      73  72  94 SE5       30.04S
SOUTH BEND     CLOUDY    69  67  93 SE6       30.02S
WARSAW +       LGT RAIN  70  70 100 SE3       30.05R

$$

INZ006>009-017-018-025>027-300200-
NORTHEAST INDIANA

CITY           SKY/WX    TMP DP  RH WIND       PRES   REMARKS
ANGOLA *+      MOCLDY    68  63  83 CALM      30.06R
AUBURN +       RAIN      70  68  94 CALM      30.07R
FORT WAYNE     CLOUDY    72  70  93 E5        30.05R
HUNTINGTON +   CLOUDY    72  68  87 CALM      30.04R FOG

$$

INZ028-029-035-036-043>045-051>053-300200-
WEST CENTRAL INDIANA

CITY           SKY/WX    TMP DP  RH WIND       PRES   REMARKS
CRAWFORDSVL +  CLOUDY    71  65  82 S3        30.03R
GREENCASTLE +  CLOUDY    72  64  78 CALM      30.04S
LAFAYETTE      CLOUDY    74  69  85 CALM      30.01R
TERRE HAUTE    CLOUDY    75  65  70 S3        30.03R

$$

INZ030>032-037>040-046>048-054>057-064-065-300200-
CENTRAL INDIANA

CITY           SKY/WX    TMP DP  RH WIND       PRES   REMARKS
FRANKFORT +    CLOUDY   N/A N/A N/A CALM      30.05R
GREENWOOD *+   CLOUDY    75  64  69 S3        30.05R
INDIANAPOLIS   CLOUDY    76  67  73 S6        30.02S
-EAGLE CREEK   CLOUDY    77  67  71 CALM      30.03R
KOKOMO *+      CLOUDY    73  66  78 E3        30.04R
MARION +       CLOUDY    71  64  76 CALM      30.05R
MT COMFORT *+  CLOUDY    73  68  83 S3        30.05S
SHELBYVILLE    CLOUDY    75  68  78 S3        30.04R
ZIONSVILLE +   CLOUDY    72  68  86 CALM      30.05R

$$

INZ033-034-041-042-049-050-058-059-300200-
EAST CENTRAL INDIANA

CITY           SKY/WX    TMP DP  RH WIND       PRES   REMARKS
MUNCIE         CLOUDY    74  67  78 S3        30.05R

$$

INZ060-061-067>069-081>083-085>088-300200-
SOUTHWEST INDIANA

CITY           SKY/WX    TMP DP  RH WIND       PRES   REMARKS
EVANSVILLE     MOCLDY    77  71  82 CALM      30.02S
HUNTINGBURG *+ CLOUDY    75  70  83 CALM      30.04R
WASHINGTON +   CLOUDY    73  69  87 CALM      30.02S

$$

INZ062-063-066-070>080-084-089>092-300200-
SOUTH CENTRAL AND SOUTHEAST INDIANA

CITY           SKY/WX    TMP DP  RH WIND       PRES   REMARKS
BLOOMINGTON    CLOUDY    73  69  87 CALM      30.04S
MADISON *+     MOCLDY    73  68  83 CALM      30.07S
NORTH VERNON + CLOUDY    75  72  88 CALM      30.06R
SEYMOUR +      CLOUDY    79  70  73 NE5       30.03S

$$




USA.gov is the U.S. government's official web portal to all federal, state and local government web resources and services.